EXS579J EGGP-LTBS

Flight info

Callsign EXS579J
Flight time N/A
Altitude 39000
Route BARTN L975 DESIG L603 DOLAS DCT NAVPI DCT MISGO DCT TIVUN DCT ESAMA DCT OSBIT DCT TENLO DCT LAMSI DCT BARUG DCT SASAL DCT SOGMO DCT BABIT DCT KOTUS DCT OBAGI DCT NISVA DCT VANET DCT NIKTI DCT LMO UN128 RIKSO UP14 ODNOD UT491 SONUP
Aircraft A339/H-SADE1E2E3GHIJ3J5M1P2RWXY/LB2D1

Departure

Time N/A
Airport Liverpool John Lennon Airport (EGGP)

Arrival

Time 2026-04-17 21:08
Airport Dalaman International Airport (LTBS)
Time Latitude Longitude Altitude Speed Heading
2026-04-17 17:59 52.55288 2.81697 41175 ft 497 kts 116°
2026-04-17 18:00 52.53981 2.86972 41177 ft 496 kts 117°
2026-04-17 18:00 52.51300 2.97282 41183 ft 496 kts 117°
2026-04-17 18:01 52.48562 3.07693 41169 ft 496 kts 117°
2026-04-17 18:01 52.45835 3.18047 41190 ft 496 kts 117°
2026-04-17 18:02 52.43111 3.28369 41192 ft 496 kts 116°
2026-04-17 18:02 52.40147 3.38549 41182 ft 493 kts 122°
2026-04-17 18:03 52.36802 3.48259 41192 ft 493 kts 123°
2026-04-17 18:03 52.33435 3.58000 41184 ft 493 kts 122°
2026-04-17 18:04 52.30078 3.67794 41189 ft 493 kts 123°
2026-04-17 18:04 52.26738 3.77557 41183 ft 493 kts 122°
2026-04-17 18:05 52.23392 3.87308 41184 ft 493 kts 122°
2026-04-17 18:05 52.20036 3.97053 41187 ft 493 kts 122°
2026-04-17 18:06 52.16678 4.06773 41192 ft 493 kts 122°
2026-04-17 18:06 52.13316 4.16462 41189 ft 494 kts 122°
2026-04-17 18:07 52.09944 4.26144 41185 ft 493 kts 122°
2026-04-17 18:07 52.06553 4.35844 41187 ft 494 kts 122°
2026-04-17 18:08 52.03149 4.45542 41186 ft 495 kts 122°
2026-04-17 18:08 51.99749 4.55194 41185 ft 495 kts 122°
2026-04-17 18:09 51.96320 4.64892 41186 ft 496 kts 122°
2026-04-17 18:09 51.92862 4.74634 41184 ft 496 kts 122°
2026-04-17 18:10 51.89408 4.84326 41193 ft 497 kts 122°
2026-04-17 18:10 51.85939 4.94021 41185 ft 497 kts 122°
2026-04-17 18:11 51.82468 5.03683 41194 ft 497 kts 122°
2026-04-17 18:11 51.78996 5.13316 41191 ft 498 kts 122°
2026-04-17 18:12 51.75504 5.22964 41187 ft 498 kts 122°
2026-04-17 18:12 51.72018 5.32560 41181 ft 498 kts 122°
2026-04-17 18:13 51.68525 5.42140 41186 ft 498 kts 122°
2026-04-17 18:13 51.65007 5.51750 41186 ft 498 kts 121°
2026-04-17 18:14 51.61505 5.61280 41190 ft 498 kts 121°
2026-04-17 18:14 51.57967 5.70877 41186 ft 499 kts 122°
2026-04-17 18:15 51.54404 5.80502 41189 ft 498 kts 122°
2026-04-17 18:15 51.50872 5.90003 41189 ft 498 kts 122°
2026-04-17 18:16 51.47309 5.99557 41187 ft 499 kts 122°
2026-04-17 18:16 51.43748 6.09070 41184 ft 499 kts 122°
2026-04-17 18:17 51.40178 6.18570 41184 ft 500 kts 121°
2026-04-17 18:17 51.34794 6.32833 41184 ft 500 kts 121°
2026-04-17 18:18 51.31205 6.42297 41185 ft 500 kts 121°
2026-04-17 18:18 51.27594 6.51781 41183 ft 501 kts 121°
2026-04-17 18:19 51.23961 6.61290 41184 ft 501 kts 121°
2026-04-17 18:19 51.20463 6.70413 41184 ft 501 kts 122°
2026-04-17 18:20 51.16815 6.79894 41184 ft 502 kts 122°
2026-04-17 18:20 51.13160 6.89355 41184 ft 502 kts 122°
2026-04-17 18:21 51.09513 6.98763 41184 ft 502 kts 121°
2026-04-17 18:21 51.05849 7.08179 41180 ft 503 kts 121°
2026-04-17 18:22 51.02151 7.17647 41181 ft 503 kts 121°
2026-04-17 18:22 50.98456 7.27076 41180 ft 502 kts 121°
2026-04-17 18:23 50.94786 7.36404 41180 ft 502 kts 121°
2026-04-17 18:23 50.91087 7.45773 41184 ft 502 kts 121°
2026-04-17 18:24 50.87367 7.55163 41185 ft 502 kts 121°
2026-04-17 18:24 50.83657 7.64492 41183 ft 502 kts 121°
2026-04-17 18:25 50.80018 7.73614 41188 ft 502 kts 122°
2026-04-17 18:25 50.76309 7.82871 41188 ft 502 kts 122°
2026-04-17 18:26 50.72589 7.92196 41188 ft 502 kts 120°
2026-04-17 18:26 50.69121 8.01711 41195 ft 501 kts 118°
2026-04-17 18:27 50.65680 8.11293 41193 ft 502 kts 118°
2026-04-17 18:27 50.62210 8.20850 41189 ft 502 kts 118°
2026-04-17 18:28 50.58747 8.30314 41182 ft 502 kts 118°
2026-04-17 18:28 50.55255 8.39815 41185 ft 502 kts 118°
2026-04-17 18:29 50.51763 8.49274 41182 ft 502 kts 118°
2026-04-17 18:29 50.48272 8.58696 41171 ft 502 kts 118°
2026-04-17 18:30 50.44755 8.68157 41173 ft 503 kts 119°
2026-04-17 18:30 50.41235 8.77589 41176 ft 503 kts 119°
2026-04-17 18:31 50.37681 8.87076 41167 ft 503 kts 119°
2026-04-17 18:31 50.34156 8.96452 41170 ft 503 kts 119°
2026-04-17 18:32 50.30592 9.05897 41166 ft 503 kts 119°
2026-04-17 18:32 50.27036 9.15289 41170 ft 503 kts 119°
2026-04-17 18:33 50.23465 9.24682 41170 ft 504 kts 119°
2026-04-17 18:33 50.19890 9.34056 41170 ft 504 kts 119°
2026-04-17 18:34 50.16285 9.43473 41182 ft 504 kts 119°
2026-04-17 18:34 50.12700 9.52803 41177 ft 504 kts 118°
2026-04-17 18:35 50.09072 9.62214 41184 ft 505 kts 118°
2026-04-17 18:35 50.05452 9.71568 41176 ft 505 kts 119°
2026-04-17 18:36 50.01830 9.80894 41179 ft 506 kts 119°
2026-04-17 18:36 49.98172 9.90278 41179 ft 506 kts 120°
2026-04-17 18:37 49.94545 9.99554 41175 ft 506 kts 119°
2026-04-17 18:37 49.90865 10.08926 41181 ft 506 kts 119°
2026-04-17 18:38 49.87222 10.18175 41184 ft 507 kts 119°
2026-04-17 18:38 49.83548 10.27468 41171 ft 507 kts 119°
2026-04-17 18:39 49.79866 10.36751 41180 ft 507 kts 119°
2026-04-17 18:39 49.76162 10.46055 41194 ft 507 kts 119°
2026-04-17 18:40 49.72470 10.55293 41187 ft 507 kts 119°
2026-04-17 18:40 49.68778 10.64501 41189 ft 507 kts 119°
2026-04-17 18:41 49.65107 10.73629 41181 ft 507 kts 120°
2026-04-17 18:41 49.61364 10.82902 41189 ft 507 kts 120°
2026-04-17 18:42 49.57652 10.92067 41184 ft 508 kts 120°
2026-04-17 18:42 49.53892 11.01324 41189 ft 508 kts 119°
2026-04-17 18:43 49.50509 11.10797 41198 ft 506 kts 114°
2026-04-17 18:43 49.47349 11.20437 41191 ft 506 kts 114°
2026-04-17 18:44 49.44182 11.30070 41184 ft 506 kts 114°
2026-04-17 18:44 49.41001 11.39695 41185 ft 506 kts 114°
2026-04-17 18:45 49.37826 11.49255 41182 ft 506 kts 114°
2026-04-17 18:45 49.34634 11.58828 41180 ft 507 kts 114°
2026-04-17 18:46 49.31405 11.68480 41195 ft 507 kts 115°
2026-04-17 18:46 49.28205 11.78007 41189 ft 507 kts 115°
2026-04-17 18:47 49.24985 11.87552 41191 ft 506 kts 115°
2026-04-17 18:47 49.21738 11.97147 41183 ft 507 kts 115°
2026-04-17 18:48 49.18519 12.06622 41197 ft 506 kts 115°
2026-04-17 18:48 49.15249 12.16211 41193 ft 507 kts 115°
2026-04-17 18:49 49.11993 12.25724 41189 ft 507 kts 115°
2026-04-17 18:49 49.08728 12.35226 41193 ft 507 kts 115°
2026-04-17 18:50 49.05455 12.44719 41192 ft 507 kts 115°
2026-04-17 18:50 49.02166 12.54224 41194 ft 507 kts 115°
2026-04-17 18:51 48.98866 12.63722 41195 ft 507 kts 115°
2026-04-17 18:51 48.95557 12.73216 41201 ft 508 kts 116°
2026-04-17 18:52 48.92264 12.82627 41191 ft 508 kts 116°
2026-04-17 18:52 48.88925 12.92135 41197 ft 508 kts 116°
2026-04-17 18:53 48.85618 13.01515 41200 ft 508 kts 116°
2026-04-17 18:53 48.82265 13.10994 41181 ft 508 kts 116°
2026-04-17 18:54 48.78933 13.20380 41189 ft 508 kts 116°
2026-04-17 18:54 48.75592 13.29758 41198 ft 508 kts 116°
2026-04-17 18:55 48.72236 13.39146 41199 ft 509 kts 116°
2026-04-17 18:55 48.68863 13.48548 41191 ft 509 kts 116°
2026-04-17 18:56 48.65466 13.57916 41195 ft 509 kts 117°
2026-04-17 18:56 48.61797 13.66906 41202 ft 510 kts 120°
2026-04-17 18:57 48.58009 13.76012 41199 ft 510 kts 120°
2026-04-17 18:57 48.54251 13.85024 41201 ft 511 kts 120°
2026-04-17 18:58 48.50480 13.94046 41195 ft 511 kts 120°
2026-04-17 18:58 48.46702 14.03056 41205 ft 511 kts 121°
2026-04-17 18:59 48.42902 14.12092 41193 ft 511 kts 120°
2026-04-17 18:59 48.39089 14.21125 41188 ft 511 kts 120°
2026-04-17 19:00 48.35272 14.30140 41180 ft 511 kts 120°
2026-04-17 19:00 48.31468 14.39094 41179 ft 511 kts 120°
2026-04-17 19:01 48.27657 14.48035 41194 ft 512 kts 120°
2026-04-17 19:01 48.23822 14.57001 41175 ft 512 kts 120°
2026-04-17 19:02 48.20038 14.65820 41198 ft 512 kts 121°
2026-04-17 19:02 48.16174 14.74798 41189 ft 512 kts 121°
2026-04-17 19:03 48.12326 14.83706 41186 ft 512 kts 121°
2026-04-17 19:03 48.08453 14.92645 41171 ft 513 kts 121°
2026-04-17 19:04 48.04573 15.01570 41173 ft 512 kts 121°
2026-04-17 19:04 48.00692 15.10468 41182 ft 513 kts 121°
2026-04-17 19:05 47.96804 15.19357 41186 ft 513 kts 121°
2026-04-17 19:05 47.92900 15.28252 41188 ft 513 kts 121°
2026-04-17 19:06 47.88990 15.36800 41190 ft 513 kts 125°
2026-04-17 19:06 47.84510 15.45217 41188 ft 513 kts 127°
2026-04-17 19:07 47.80054 15.53460 41189 ft 513 kts 127°
2026-04-17 19:07 47.75589 15.61715 41183 ft 513 kts 127°
2026-04-17 19:08 47.71096 15.70006 41198 ft 513 kts 128°
2026-04-17 19:08 47.66651 15.78186 41191 ft 513 kts 128°
2026-04-17 19:09 47.62158 15.86428 41189 ft 513 kts 128°
2026-04-17 19:09 47.57656 15.94664 41187 ft 513 kts 128°
2026-04-17 19:10 47.53142 16.02894 41171 ft 513 kts 128°
2026-04-17 19:10 47.48649 16.11065 41191 ft 513 kts 128°
2026-04-17 19:11 47.44170 16.19183 41185 ft 513 kts 128°
2026-04-17 19:11 47.39630 16.27391 41170 ft 518 kts 128°
2026-04-17 19:12 47.35054 16.35640 41175 ft 520 kts 128°
2026-04-17 19:12 47.30532 16.43763 41156 ft 514 kts 128°
2026-04-17 19:13 47.26007 16.51924 41160 ft 514 kts 127°
2026-04-17 19:13 47.21559 16.60064 41146 ft 513 kts 127°
2026-04-17 19:14 47.17159 16.68100 41147 ft 513 kts 128°
2026-04-17 19:14 47.12688 16.76231 41149 ft 514 kts 128°
2026-04-17 19:15 47.08179 16.84401 41148 ft 514 kts 128°
2026-04-17 19:15 47.03693 16.92505 41125 ft 514 kts 128°
2026-04-17 19:16 46.99200 17.00597 41144 ft 514 kts 128°
2026-04-17 19:16 46.94700 17.08679 41150 ft 514 kts 128°
2026-04-17 19:17 46.90169 17.16792 41140 ft 514 kts 128°
2026-04-17 19:17 46.85624 17.24908 41143 ft 514 kts 128°
2026-04-17 19:18 46.81102 17.32958 41121 ft 514 kts 128°
2026-04-17 19:18 46.76573 17.40998 41132 ft 514 kts 128°
2026-04-17 19:19 46.72036 17.49028 41131 ft 515 kts 128°
2026-04-17 19:19 46.67523 17.56997 41124 ft 514 kts 128°
2026-04-17 19:20 46.62952 17.65040 41128 ft 515 kts 129°
2026-04-17 19:20 46.58464 17.73087 41116 ft 514 kts 127°
2026-04-17 19:21 46.54105 17.81282 41114 ft 515 kts 127°
2026-04-17 19:21 46.49721 17.89506 41114 ft 514 kts 127°
2026-04-17 19:22 46.45363 17.97628 41114 ft 515 kts 127°
2026-04-17 19:22 46.40946 18.05818 41109 ft 514 kts 127°
2026-04-17 19:23 46.34365 18.17973 41108 ft 514 kts 127°
2026-04-17 19:24 46.29931 18.26132 41110 ft 514 kts 127°
2026-04-17 19:24 46.25509 18.34244 41115 ft 515 kts 127°
2026-04-17 19:25 46.21120 18.42273 41099 ft 514 kts 127°
2026-04-17 19:25 46.16686 18.50362 41106 ft 515 kts 127°
2026-04-17 19:26 46.12241 18.58449 41105 ft 514 kts 127°
2026-04-17 19:26 46.07799 18.66506 41093 ft 515 kts 128°
2026-04-17 19:27 46.03350 18.74556 41090 ft 515 kts 128°
2026-04-17 19:27 45.98887 18.82607 41091 ft 515 kts 128°
2026-04-17 19:28 45.94409 18.90660 41100 ft 514 kts 128°
2026-04-17 19:28 45.89856 18.98553 41102 ft 515 kts 130°
2026-04-17 19:29 45.85162 19.06307 41101 ft 515 kts 130°
2026-04-17 19:29 45.80481 19.14041 41106 ft 514 kts 130°
2026-04-17 19:30 45.75817 19.21763 41093 ft 515 kts 130°
2026-04-17 19:30 45.71137 19.29501 41083 ft 514 kts 130°
2026-04-17 19:31 45.66485 19.37176 41087 ft 514 kts 130°
2026-04-17 19:31 45.61812 19.44863 41084 ft 513 kts 130°
2026-04-17 19:32 45.57135 19.52536 41086 ft 513 kts 130°
2026-04-17 19:32 45.52322 19.60002 41076 ft 513 kts 135°
2026-04-17 19:33 45.47106 19.66863 41078 ft 513 kts 138°
2026-04-17 19:33 45.41824 19.73735 41067 ft 513 kts 137°
2026-04-17 19:34 45.36584 19.80624 41071 ft 513 kts 137°
2026-04-17 19:34 45.31367 19.87507 41075 ft 513 kts 137°
2026-04-17 19:35 45.26152 19.94383 41061 ft 513 kts 137°
2026-04-17 19:35 45.20915 20.01268 41063 ft 512 kts 137°
2026-04-17 19:36 45.15722 20.08083 41064 ft 512 kts 137°
2026-04-17 19:36 45.10508 20.14905 41071 ft 512 kts 137°
2026-04-17 19:37 45.05266 20.21746 41066 ft 511 kts 137°
2026-04-17 19:37 45.00044 20.28544 41071 ft 511 kts 137°
2026-04-17 19:38 44.94820 20.35325 41075 ft 511 kts 137°
2026-04-17 19:38 44.89601 20.42084 41068 ft 511 kts 137°
2026-04-17 19:39 44.84330 20.48892 41073 ft 511 kts 137°
2026-04-17 19:39 44.79117 20.55607 41067 ft 510 kts 137°
2026-04-17 19:40 44.73864 20.62358 41076 ft 510 kts 137°
2026-04-17 19:40 44.68600 20.69103 41059 ft 510 kts 138°
2026-04-17 19:41 44.63372 20.75789 41079 ft 509 kts 138°
2026-04-17 19:41 44.58138 20.82461 41066 ft 509 kts 138°
2026-04-17 19:42 44.52912 20.89108 41066 ft 509 kts 138°
2026-04-17 19:42 44.47663 20.95768 41067 ft 509 kts 138°
2026-04-17 19:43 44.42410 21.02416 41064 ft 509 kts 138°
2026-04-17 19:43 44.37175 21.09023 41068 ft 508 kts 138°
2026-04-17 19:44 44.31926 21.15631 41067 ft 509 kts 138°
2026-04-17 19:44 44.26765 21.22115 41060 ft 508 kts 138°
2026-04-17 19:45 44.21493 21.28719 41064 ft 512 kts 138°
2026-04-17 19:45 44.16143 21.35404 41068 ft 518 kts 138°
2026-04-17 19:46 44.10810 21.42052 41061 ft 519 kts 138°
2026-04-17 19:46 44.05452 21.48714 41069 ft 519 kts 138°
2026-04-17 19:47 44.00075 21.55384 41058 ft 518 kts 138°
2026-04-17 19:47 43.94677 21.62060 41063 ft 518 kts 138°
2026-04-17 19:48 43.89284 21.68716 41066 ft 518 kts 139°
2026-04-17 19:48 43.83907 21.75335 41057 ft 517 kts 139°
2026-04-17 19:49 43.78520 21.81948 41061 ft 517 kts 139°
2026-04-17 19:49 43.73150 21.88525 41057 ft 516 kts 139°
2026-04-17 19:50 43.67747 21.95125 41045 ft 516 kts 139°
2026-04-17 19:50 43.62380 22.01666 41036 ft 516 kts 139°
2026-04-17 19:51 43.57005 22.08200 41044 ft 515 kts 139°
2026-04-17 19:51 43.51636 22.14711 41036 ft 515 kts 139°
2026-04-17 19:52 43.46274 22.21198 41041 ft 515 kts 139°
2026-04-17 19:52 43.40909 22.27670 41038 ft 515 kts 139°
2026-04-17 19:53 43.35540 22.34133 41029 ft 514 kts 139°
2026-04-17 19:53 43.30162 22.40591 41036 ft 514 kts 139°
2026-04-17 19:54 43.24817 22.46997 41031 ft 513 kts 139°
2026-04-17 19:54 43.19436 22.53427 41025 ft 513 kts 139°
2026-04-17 19:55 43.14073 22.59821 41032 ft 512 kts 139°
2026-04-17 19:55 43.08665 22.66257 41028 ft 511 kts 140°
2026-04-17 19:56 43.03336 22.72584 41022 ft 511 kts 140°
2026-04-17 19:56 42.97911 22.78873 41026 ft 510 kts 143°
2026-04-17 19:57 42.92131 22.84467 41020 ft 509 kts 147°
2026-04-17 19:57 42.86263 22.89805 41026 ft 509 kts 147°
2026-04-17 19:58 42.80401 22.95134 41020 ft 508 kts 147°
2026-04-17 19:58 42.74521 23.00477 41013 ft 507 kts 147°
2026-04-17 19:59 42.68668 23.05785 41016 ft 507 kts 147°
2026-04-17 19:59 42.62802 23.11091 41010 ft 507 kts 147°
2026-04-17 20:00 42.56952 23.16373 41015 ft 507 kts 147°
2026-04-17 20:00 42.51098 23.21645 41014 ft 506 kts 147°
2026-04-17 20:01 42.45262 23.26891 41014 ft 506 kts 147°
2026-04-17 20:01 42.39378 23.32169 41022 ft 506 kts 147°
2026-04-17 20:02 42.33547 23.37388 41023 ft 506 kts 147°
2026-04-17 20:02 42.27717 23.42714 41017 ft 505 kts 145°
2026-04-17 20:03 42.22031 23.48182 41024 ft 506 kts 145°
2026-04-17 20:03 42.16306 23.53677 41016 ft 505 kts 145°
2026-04-17 20:04 42.10600 23.59145 41021 ft 505 kts 145°
2026-04-17 20:04 42.04858 23.64637 41020 ft 505 kts 145°
2026-04-17 20:05 41.99123 23.70110 41025 ft 504 kts 146°
2026-04-17 20:05 41.93391 23.75569 41023 ft 504 kts 146°
2026-04-17 20:06 41.87655 23.81020 41023 ft 503 kts 146°
2026-04-17 20:06 41.81927 23.86449 41019 ft 503 kts 146°
2026-04-17 20:07 41.76219 23.91850 41009 ft 503 kts 146°
2026-04-17 20:07 41.70522 23.97228 41010 ft 503 kts 146°
2026-04-17 20:08 41.64807 24.02614 41004 ft 502 kts 146°
2026-04-17 20:08 41.59083 24.07995 40996 ft 501 kts 146°
2026-04-17 20:09 41.53248 24.13070 40998 ft 500 kts 151°
2026-04-17 20:09 41.47125 24.17450 40996 ft 500 kts 153°
2026-04-17 20:10 41.40946 24.21778 40989 ft 499 kts 153°
2026-04-17 20:10 41.34810 24.26076 40986 ft 499 kts 153°
2026-04-17 20:11 41.28624 24.30402 40974 ft 498 kts 153°
2026-04-17 20:11 41.22476 24.34693 40956 ft 498 kts 153°
2026-04-17 20:12 41.16361 24.38953 40937 ft 497 kts 153°
2026-04-17 20:12 41.10191 24.43240 40937 ft 497 kts 153°
2026-04-17 20:13 41.04058 24.47495 40925 ft 497 kts 153°
2026-04-17 20:13 40.97924 24.51741 40919 ft 496 kts 153°
2026-04-17 20:14 40.91822 24.55953 40913 ft 496 kts 153°
2026-04-17 20:14 40.85688 24.60181 40913 ft 495 kts 153°
2026-04-17 20:15 40.79568 24.64391 40911 ft 495 kts 153°
2026-04-17 20:15 40.73415 24.68613 40906 ft 495 kts 154°
2026-04-17 20:16 40.67309 24.72796 40907 ft 495 kts 154°
2026-04-17 20:16 40.61186 24.76980 40909 ft 495 kts 154°
2026-04-17 20:17 40.55074 24.81148 40904 ft 494 kts 154°
2026-04-17 20:17 40.48982 24.85295 40903 ft 494 kts 154°
2026-04-17 20:18 40.42882 24.89439 40905 ft 494 kts 154°
2026-04-17 20:18 40.36765 24.93584 40903 ft 494 kts 153°
2026-04-17 20:19 40.30657 24.97718 40897 ft 494 kts 154°
2026-04-17 20:19 40.24526 25.01856 40882 ft 494 kts 153°
2026-04-17 20:20 40.18401 25.05986 40879 ft 494 kts 154°
2026-04-17 20:20 40.12296 25.10092 40888 ft 494 kts 154°
2026-04-17 20:21 40.06181 25.14198 40874 ft 494 kts 153°
2026-04-17 20:21 40.00069 25.18293 40864 ft 494 kts 153°
2026-04-17 20:22 39.94104 25.22629 40857 ft 494 kts 148°
2026-04-17 20:22 39.88437 25.27800 40854 ft 495 kts 142°
2026-04-17 20:23 39.83202 25.33600 40829 ft 495 kts 139°
2026-04-17 20:23 39.78046 25.39472 40843 ft 496 kts 139°
2026-04-17 20:24 39.72842 25.45375 40820 ft 496 kts 139°
2026-04-17 20:24 39.67679 25.51210 40826 ft 495 kts 139°
2026-04-17 20:25 39.62465 25.57092 40840 ft 495 kts 139°
2026-04-17 20:25 39.57283 25.62927 40821 ft 495 kts 139°
2026-04-17 20:26 39.52095 25.68754 40808 ft 495 kts 140°
2026-04-17 20:26 39.46872 25.74612 40820 ft 495 kts 140°
2026-04-17 20:27 39.41684 25.80416 40813 ft 495 kts 140°
2026-04-17 20:27 39.36484 25.86229 40798 ft 495 kts 140°
2026-04-17 20:28 39.31245 25.92067 40785 ft 495 kts 140°
2026-04-17 20:28 39.26001 25.97825 40794 ft 495 kts 141°
2026-04-17 20:29 39.20701 26.03493 40779 ft 495 kts 141°
2026-04-17 20:29 39.15410 26.09148 40782 ft 494 kts 141°
2026-04-17 20:30 39.07505 26.17605 40774 ft 494 kts 141°
2026-04-17 20:30 39.02227 26.23241 40784 ft 494 kts 141°
2026-04-17 20:31 38.96949 26.28870 40756 ft 494 kts 141°
2026-04-17 20:31 38.91672 26.34508 40742 ft 494 kts 139°
2026-04-17 20:32 38.87032 26.41002 40756 ft 495 kts 126°
2026-04-17 20:32 38.83612 26.48654 40759 ft 496 kts 113°
2026-04-17 20:33 38.81591 26.57020 40774 ft 497 kts 101°
2026-04-17 20:33 38.80505 26.65760 40769 ft 497 kts 99°
2026-04-17 20:34 38.79475 26.74528 40755 ft 497 kts 99°
2026-04-17 20:34 38.78393 26.83232 40750 ft 496 kts 101°
2026-04-17 20:35 38.76678 26.91742 40730 ft 495 kts 110°
2026-04-17 20:35 38.74000 26.99801 40729 ft 493 kts 118°
2026-04-17 20:36 38.70419 27.07255 40746 ft 492 kts 127°
2026-04-17 20:36 38.66343 27.14203 40739 ft 492 kts 128°
2026-04-17 20:37 38.62238 27.21146 40328 ft 483 kts 127°
2026-04-17 20:37 38.60226 27.24552 39628 ft 481 kts 127°
2026-04-17 20:37 38.58244 27.27908 38849 ft 479 kts 127°
2026-04-17 20:38 38.56225 27.31325 37988 ft 477 kts 127°
2026-04-17 20:38 38.54253 27.34660 37159 ft 474 kts 126°
2026-04-17 20:38 38.52271 27.38009 36360 ft 471 kts 126°
2026-04-17 20:38 38.50320 27.41303 35817 ft 470 kts 126°
2026-04-17 20:39 38.48354 27.44609 35285 ft 468 kts 126°
2026-04-17 20:39 38.46379 27.47921 34732 ft 467 kts 126°
2026-04-17 20:39 38.44420 27.51208 34065 ft 465 kts 125°
2026-04-17 20:39 38.42466 27.54486 33240 ft 465 kts 125°
2026-04-17 20:40 38.40492 27.57798 32611 ft 471 kts 125°
2026-04-17 20:40 38.38523 27.61098 32240 ft 477 kts 125°
2026-04-17 20:40 38.36508 27.64477 31851 ft 480 kts 125°
2026-04-17 20:40 38.34472 27.67883 31452 ft 483 kts 125°
2026-04-17 20:41 38.32418 27.71313 31030 ft 485 kts 126°
2026-04-17 20:41 38.30386 27.74702 30615 ft 488 kts 125°
2026-04-17 20:41 38.28251 27.78044 30179 ft 491 kts 129°
2026-04-17 20:41 38.25687 27.81372 29689 ft 497 kts 135°
2026-04-17 20:42 38.23233 27.84031 29225 ft 498 kts 139°
2026-04-17 20:42 38.20409 27.86655 28762 ft 497 kts 142°
2026-04-17 20:42 38.17609 27.89166 28327 ft 495 kts 142°
2026-04-17 20:42 38.14784 27.91680 27887 ft 492 kts 142°
2026-04-17 20:43 38.12002 27.94154 27450 ft 489 kts 142°
2026-04-17 20:43 38.09230 27.96622 27010 ft 485 kts 142°
2026-04-17 20:43 38.06493 27.99062 26545 ft 478 kts 142°
2026-04-17 20:43 38.03804 28.01462 26081 ft 470 kts 142°
2026-04-17 20:44 38.01144 28.03832 25639 ft 463 kts 141°
2026-04-17 20:44 37.98537 28.06155 25222 ft 455 kts 141°
2026-04-17 20:44 37.95958 28.08453 24807 ft 449 kts 141°
2026-04-17 20:44 37.93418 28.10715 24397 ft 442 kts 141°
2026-04-17 20:45 37.90917 28.12940 23999 ft 435 kts 141°
2026-04-17 20:45 37.88453 28.15128 23611 ft 429 kts 141°
2026-04-17 20:45 37.86034 28.17277 23245 ft 422 kts 141°
2026-04-17 20:45 37.83659 28.19390 22883 ft 416 kts 141°
2026-04-17 20:46 37.81312 28.21473 22515 ft 411 kts 141°
2026-04-17 20:46 37.78974 28.23544 22144 ft 406 kts 141°
2026-04-17 20:46 37.76687 28.25571 21771 ft 401 kts 141°
2026-04-17 20:46 37.74424 28.27576 21399 ft 396 kts 142°
2026-04-17 20:47 37.72176 28.29563 21039 ft 392 kts 142°
2026-04-17 20:47 37.69951 28.31527 20772 ft 385 kts 141°
2026-04-17 20:47 37.67800 28.33423 20748 ft 375 kts 141°
2026-04-17 20:47 37.65646 28.35325 20752 ft 376 kts 141°
2026-04-17 20:48 37.63530 28.37195 20747 ft 376 kts 141°
2026-04-17 20:48 37.61359 28.39109 20746 ft 376 kts 142°
2026-04-17 20:48 37.59224 28.40988 20751 ft 375 kts 142°
2026-04-17 20:48 37.57073 28.42879 20756 ft 376 kts 141°
2026-04-17 20:49 37.54941 28.44754 20749 ft 376 kts 142°
2026-04-17 20:49 37.52809 28.46626 20750 ft 373 kts 141°
2026-04-17 20:49 37.50706 28.48458 20740 ft 359 kts 143°
2026-04-17 20:49 37.48597 28.50057 20744 ft 347 kts 148°
2026-04-17 20:50 37.46460 28.51377 20746 ft 339 kts 152°
2026-04-17 20:50 37.44307 28.52576 20754 ft 339 kts 152°
2026-04-17 20:50 37.42140 28.53769 20751 ft 340 kts 153°
2026-04-17 20:50 37.39980 28.54956 20750 ft 339 kts 152°
2026-04-17 20:51 37.37841 28.56133 20749 ft 339 kts 153°
2026-04-17 20:51 37.35686 28.57316 20689 ft 336 kts 152°
2026-04-17 20:51 37.33544 28.58495 20399 ft 334 kts 153°
2026-04-17 20:51 37.31406 28.59671 19913 ft 333 kts 153°
2026-04-17 20:52 37.29317 28.60821 19422 ft 330 kts 153°
2026-04-17 20:52 37.27222 28.61972 18953 ft 325 kts 153°
2026-04-17 20:52 37.25163 28.63103 18488 ft 322 kts 153°
2026-04-17 20:52 37.23126 28.64220 18011 ft 318 kts 154°
2026-04-17 20:53 37.21114 28.65323 17512 ft 316 kts 154°
2026-04-17 20:53 37.19098 28.66426 17046 ft 312 kts 154°
2026-04-17 20:53 37.17128 28.67505 16571 ft 310 kts 154°
2026-04-17 20:53 37.15167 28.68579 16096 ft 308 kts 155°
2026-04-17 20:54 37.13202 28.69655 15597 ft 306 kts 154°
2026-04-17 20:54 37.11281 28.70704 15125 ft 303 kts 155°
2026-04-17 20:54 37.09360 28.71754 14680 ft 300 kts 155°
2026-04-17 20:54 37.07436 28.72743 14211 ft 299 kts 162°
2026-04-17 20:55 37.05368 28.73194 13716 ft 301 kts 176°
2026-04-17 20:55 37.03288 28.73116 13261 ft 299 kts 181°
2026-04-17 20:55 37.01221 28.72949 12807 ft 297 kts 181°
2026-04-17 20:55 36.99164 28.72778 12358 ft 295 kts 181°
2026-04-17 20:56 36.97120 28.72616 11904 ft 293 kts 181°
2026-04-17 20:56 36.95108 28.72464 11454 ft 292 kts 181°
2026-04-17 20:56 36.93077 28.72313 11001 ft 290 kts 181°
2026-04-17 20:56 36.91070 28.72148 10564 ft 289 kts 183°
2026-04-17 20:57 36.89085 28.71795 10134 ft 288 kts 189°
2026-04-17 20:57 36.87142 28.71235 9724 ft 287 kts 192°
2026-04-17 20:57 36.85207 28.70630 9283 ft 286 kts 192°
2026-04-17 20:57 36.83279 28.70024 8848 ft 285 kts 192°
2026-04-17 20:58 36.81358 28.69421 8418 ft 284 kts 192°
2026-04-17 20:58 36.79454 28.68825 7980 ft 283 kts 192°
2026-04-17 20:58 36.77548 28.68228 7530 ft 281 kts 192°
2026-04-17 20:58 36.75667 28.67639 7188 ft 278 kts 192°
2026-04-17 20:59 36.73798 28.67055 6882 ft 273 kts 192°
2026-04-17 20:59 36.71980 28.66489 6611 ft 267 kts 192°
2026-04-17 20:59 36.70213 28.65940 6360 ft 262 kts 192°
2026-04-17 20:59 36.68454 28.65391 6155 ft 257 kts 193°
2026-04-17 21:00 36.66730 28.64814 5996 ft 254 kts 193°
2026-04-17 21:00 36.65026 28.64228 5744 ft 254 kts 193°
2026-04-17 21:00 36.63323 28.63647 5509 ft 254 kts 192°
2026-04-17 21:00 36.61610 28.63066 5272 ft 253 kts 192°
2026-04-17 21:01 36.59917 28.62492 5047 ft 251 kts 192°
2026-04-17 21:01 36.58231 28.61923 4818 ft 249 kts 192°
2026-04-17 21:01 36.56578 28.61363 4602 ft 247 kts 192°
2026-04-17 21:01 36.54921 28.60976 4345 ft 241 kts 171°
2026-04-17 21:02 36.53425 28.61707 4105 ft 228 kts 134°
2026-04-17 21:02 36.52575 28.63292 3891 ft 217 kts 104°
2026-04-17 21:02 36.52195 28.65125 3707 ft 222 kts 101°
2026-04-17 21:02 36.51825 28.66970 3497 ft 217 kts 102°
2026-04-17 21:03 36.51452 28.68744 3223 ft 212 kts 102°
2026-04-17 21:03 36.51356 28.70473 3103 ft 194 kts 71°
2026-04-17 21:03 36.52062 28.71820 3113 ft 195 kts 44°
2026-04-17 21:03 36.53161 28.72799 3046 ft 197 kts 31°
2026-04-17 21:04 36.54406 28.73469 2881 ft 193 kts 22°
2026-04-17 21:04 36.55626 28.73933 2794 ft 176 kts 19°
2026-04-17 21:04 36.56821 28.74338 2646 ft 177 kts 18°
2026-04-17 21:04 36.57988 28.74725 2412 ft 169 kts 18°
2026-04-17 21:05 36.59093 28.75096 2193 ft 161 kts 18°
2026-04-17 21:05 36.60149 28.75454 1989 ft 154 kts 19°
2026-04-17 21:05 36.61191 28.75810 1805 ft 156 kts 19°
2026-04-17 21:05 36.62239 28.76167 1620 ft 152 kts 19°
2026-04-17 21:06 36.63233 28.76524 1393 ft 146 kts 19°
2026-04-17 21:06 36.64199 28.76866 1185 ft 141 kts 18°
2026-04-17 21:06 36.65144 28.77170 1038 ft 142 kts 16°
2026-04-17 21:06 36.66109 28.77483 859 ft 142 kts 16°
2026-04-17 21:07 36.67059 28.77797 681 ft 141 kts 16°
2026-04-17 21:07 36.68000 28.78135 488 ft 141 kts 17°
2026-04-17 21:07 36.68952 28.78456 294 ft 140 kts 14°
2026-04-17 21:07 36.69891 28.78770 99 ft 138 kts 15°
2026-04-17 21:08 36.70781 28.79074 37 ft 118 kts 15°
2026-04-17 21:08 36.71400 28.79283 37 ft 65 kts 15°
2026-04-17 21:08 36.71771 28.79411 37 ft 47 kts 15°
2026-04-17 21:08 36.72001 28.79429 37 ft 27 kts 351°
2026-04-17 21:09 36.72115 28.79395 37 ft 9 kts 344°
2026-04-17 21:09 36.72121 28.79393 37 ft 0 kts 344°
2026-04-17 21:09 36.72121 28.79392 37 ft 0 kts 344°
2026-04-17 21:10 36.72168 28.79376 37 ft 12 kts 344°
2026-04-17 21:10 36.72250 28.79350 37 ft 3 kts 344°
2026-04-17 21:10 36.72274 28.79326 37 ft 6 kts 302°
2026-04-17 21:10 36.72296 28.79241 37 ft 13 kts 286°
2026-04-17 21:11 36.72292 28.79164 37 ft 4 kts 230°
2026-04-17 21:11 36.72270 28.79130 37 ft 5 kts 252°
2026-04-17 21:11 36.72270 28.79083 37 ft 3 kts 285°
2026-04-17 21:11 36.72272 28.79073 37 ft 0 kts 286°